GEFSCGP_prec_meanprecacc_054.txt.gz
Total_Precipitation_Accumulation
0.00 0.00 0.00 0.01 0.01 0.01 0.02 0.05 0.14 0.17 0.13 0.20 0.22 0.25 0.33 0.44 0.44 0.35 0.29 0.24 0.24 0.30 0.42 0.62 1.03 1.70 2.50 3.21 3.36 2.94 2.50 2.22 1.96 1.64 1.16 0.85 0.74 0.71 0.67 0.57 0.51 0.46 0.42 0.43
0.00 0.02 0.01 0.01 0.01 0.03 0.04 0.04 0.12 0.19 0.13 0.15 0.22 0.36 0.52 0.57 0.48 0.34 0.29 0.27 0.30 0.45 0.72 1.19 1.98 2.49 2.51 2.43 2.06 1.67 1.49 1.36 1.09 0.81 0.57 0.45 0.41 0.38 0.36 0.34 0.36 0.34 0.29 0.30
0.01 0.03 0.02 0.01 0.03 0.08 0.07 0.06 0.13 0.20 0.11 0.09 0.24 0.55 0.66 0.58 0.51 0.35 0.26 0.26 0.46 0.77 1.19 1.80 2.21 2.09 1.55 1.08 0.89 0.81 0.75 0.55 0.40 0.35 0.32 0.27 0.24 0.25 0.23 0.22 0.24 0.24 0.21 0.22
0.01 0.02 0.02 0.02 0.03 0.07 0.06 0.04 0.04 0.07 0.09 0.20 0.37 0.73 0.78 0.57 0.57 0.45 0.38 0.31 0.42 0.62 0.84 1.12 1.24 0.99 0.83 0.72 0.63 0.66 0.58 0.36 0.28 0.23 0.20 0.18 0.17 0.19 0.19 0.19 0.19 0.19 0.17 0.18
0.02 0.02 0.02 0.02 0.03 0.03 0.03 0.03 0.03 0.06 0.11 0.19 0.33 0.59 0.69 0.56 0.64 0.48 0.34 0.29 0.30 0.43 0.48 0.45 0.45 0.40 0.39 0.40 0.44 0.51 0.50 0.44 0.35 0.28 0.22 0.20 0.18 0.17 0.18 0.19 0.19 0.20 0.20 0.18
0.03 0.03 0.02 0.01 0.01 0.02 0.03 0.04 0.06 0.11 0.16 0.34 0.47 0.61 0.77 0.72 0.75 0.56 0.37 0.27 0.28 0.40 0.42 0.34 0.26 0.23 0.24 0.26 0.27 0.33 0.43 0.53 0.50 0.43 0.35 0.29 0.23 0.21 0.19 0.18 0.19 0.19 0.18 0.18
0.08 0.05 0.03 0.02 0.02 0.03 0.04 0.04 0.09 0.31 0.52 0.61 0.46 0.54 0.78 0.62 0.57 0.41 0.21 0.14 0.21 0.36 0.45 0.42 0.31 0.23 0.18 0.17 0.15 0.13 0.15 0.24 0.28 0.28 0.30 0.31 0.30 0.26 0.21 0.18 0.15 0.17 0.16 0.16
0.13 0.10 0.04 0.03 0.03 0.05 0.03 0.02 0.05 0.09 0.14 0.25 0.34 0.60 0.76 0.60 0.38 0.17 0.07 0.06 0.15 0.22 0.25 0.25 0.19 0.13 0.08 0.06 0.06 0.04 0.04 0.05 0.07 0.09 0.13 0.18 0.21 0.17 0.15 0.21 0.17 0.17 0.21 0.22
0.04 0.03 0.03 0.03 0.03 0.04 0.02 0.01 0.02 0.03 0.04 0.14 0.36 0.59 0.54 0.46 0.31 0.13 0.07 0.05 0.06 0.08 0.09 0.10 0.10 0.08 0.06 0.04 0.03 0.03 0.02 0.02 0.02 0.03 0.05 0.09 0.15 0.15 0.14 0.16 0.17 0.16 0.22 0.23
0.01 0.01 0.02 0.03 0.03 0.03 0.02 0.01 0.01 0.02 0.05 0.09 0.22 0.50 0.61 0.47 0.32 0.13 0.08 0.07 0.06 0.08 0.07 0.07 0.06 0.06 0.05 0.04 0.04 0.04 0.03 0.02 0.02 0.02 0.03 0.05 0.12 0.15 0.16 0.15 0.17 0.19 0.18 0.18
0.00 0.01 0.02 0.02 0.02 0.03 0.02 0.02 0.02 0.02 0.03 0.05 0.09 0.24 0.25 0.20 0.13 0.09 0.05 0.03 0.04 0.04 0.05 0.04 0.04 0.04 0.04 0.03 0.03 0.03 0.03 0.03 0.02 0.02 0.02 0.02 0.06 0.10 0.14 0.18 0.19 0.20 0.19 0.18
0.00 0.00 0.01 0.03 0.03 0.03 0.02 0.02 0.02 0.03 0.03 0.03 0.05 0.15 0.10 0.10 0.09 0.06 0.02 0.01 0.01 0.01 0.01 0.01 0.02 0.02 0.02 0.03 0.03 0.04 0.04 0.03 0.03 0.02 0.02 0.01 0.01 0.03 0.06 0.11 0.14 0.16 0.16 0.15
0.00 0.00 0.01 0.05 0.05 0.03 0.03 0.02 0.03 0.03 0.04 0.03 0.10 0.19 0.10 0.05 0.04 0.02 0.01 0.00 0.00 0.00 0.00 0.01 0.01 0.02 0.03 0.03 0.03 0.02 0.02 0.02 0.01 0.01 0.01 0.01 0.01 0.01 0.02 0.05 0.08 0.11 0.13 0.14
0.00 0.00 0.00 0.02 0.02 0.01 0.02 0.04 0.05 0.05 0.02 0.01 0.05 0.16 0.07 0.02 0.01 0.00 0.00 0.00 0.00 0.00 0.00 0.00 0.01 0.01 0.01 0.01 0.01 0.00 0.00 0.00 0.00 0.01 0.01 0.01 0.02 0.02 0.02 0.02 0.04 0.06 0.09 0.12
0.00 0.00 0.00 0.00 0.00 0.01 0.02 0.05 0.04 0.02 0.01 0.03 0.04 0.07 0.03 0.01 0.01 0.00 0.00 0.00 0.00 0.00 0.01 0.01 0.01 0.01 0.01 0.02 0.02 0.02 0.03 0.03 0.04 0.05 0.05 0.06 0.06 0.06 0.05 0.05 0.05 0.06 0.08 0.11
0.00 0.00 0.00 0.00 0.00 0.01 0.03 0.06 0.03 0.01 0.00 0.00 0.00 0.01 0.00 0.00 0.01 0.01 0.02 0.03 0.04 0.04 0.04 0.04 0.04 0.03 0.02 0.02 0.02 0.02 0.03 0.03 0.04 0.05 0.05 0.05 0.05 0.05 0.06 0.06 0.06 0.07 0.10 0.15
0.00 0.00 0.00 0.00 0.00 0.01 0.07 0.04 0.01 0.00 0.00 0.00 0.00 0.00 0.00 0.01 0.01 0.02 0.05 0.06 0.05 0.03 0.02 0.01 0.01 0.00 0.00 0.00 0.00 0.00 0.01 0.01 0.02 0.03 0.03 0.03 0.05 0.05 0.07 0.07 0.08 0.10 0.14 0.19
0.00 0.00 0.00 0.00 0.00 0.04 0.07 0.01 0.00 0.00 0.00 0.00 0.00 0.00 0.00 0.00 0.01 0.01 0.01 0.01 0.00 0.00 0.00 0.00 0.00 0.00 0.00 0.00 0.00 0.00 0.00 0.01 0.01 0.02 0.03 0.04 0.06 0.08 0.09 0.13 0.15 0.19 0.22 0.24
0.02 0.01 0.01 0.01 0.00 0.03 0.02 0.00 0.00 0.01 0.01 0.00 0.00 0.00 0.00 0.00 0.00 0.00 0.00 0.00 0.00 0.00 0.00 0.00 0.00 0.00 0.00 0.00 0.00 0.01 0.01 0.01 0.02 0.03 0.05 0.06 0.09 0.11 0.14 0.16 0.22 0.29 0.32 0.31
0.02 0.02 0.02 0.01 0.01 0.02 0.02 0.00 0.00 0.00 0.02 0.00 0.00 0.00 0.00 0.00 0.00 0.00 0.00 0.00 0.00 0.00 0.00 0.00 0.00 0.00 0.00 0.01 0.01 0.02 0.02 0.04 0.05 0.07 0.08 0.10 0.14 0.19 0.21 0.24 0.29 0.33 0.38 0.39
0.00 0.01 0.01 0.00 0.00 0.00 0.00 0.00 0.00 0.00 0.00 0.00 0.00 0.00 0.00 0.00 0.00 0.00 0.00 0.00 0.00 0.00 0.00 0.00 0.00 0.00 0.01 0.01 0.03 0.06 0.07 0.09 0.10 0.11 0.11 0.13 0.17 0.23 0.25 0.32 0.36 0.38 0.40 0.42
0.00 0.00 0.00 0.00 0.01 0.01 0.00 0.00 0.00 0.00 0.00 0.00 0.00 0.00 0.00 0.00 0.00 0.00 0.00 0.00 0.00 0.00 0.00 0.00 0.00 0.00 0.01 0.03 0.07 0.10 0.12 0.12 0.12 0.13 0.14 0.14 0.17 0.18 0.21 0.31 0.35 0.39 0.46 0.49
0.00 0.00 0.00 0.00 0.00 0.00 0.00 0.00 0.00 0.00 0.00 0.00 0.00 0.00 0.00 0.00 0.00 0.00 0.00 0.00 0.00 0.00 0.00 0.00 0.00 0.01 0.02 0.05 0.10 0.15 0.13 0.13 0.15 0.16 0.16 0.17 0.18 0.22 0.27 0.33 0.34 0.36 0.40 0.41
0.00 0.00 0.00 0.00 0.00 0.00 0.00 0.00 0.00 0.00 0.00 0.00 0.00 0.00 0.00 0.00 0.00 0.00 0.00 0.00 0.00 0.00 0.00 0.00 0.02 0.04 0.06 0.07 0.09 0.12 0.13 0.16 0.20 0.20 0.19 0.20 0.22 0.24 0.28 0.36 0.38 0.37 0.37 0.37
0.00 0.00 0.00 0.00 0.00 0.00 0.00 0.00 0.00 0.00 0.00 0.00 0.00 0.00 0.00 0.00 0.00 0.00 0.00 0.00 0.00 0.00 0.01 0.02 0.06 0.09 0.10 0.09 0.09 0.10 0.14 0.22 0.25 0.24 0.23 0.23 0.26 0.28 0.29 0.35 0.38 0.33 0.34 0.30
0.00 0.00 0.00 0.00 0.00 0.00 0.00 0.00 0.00 0.00 0.00 0.00 0.00 0.00 0.00 0.00 0.00 0.00 0.00 0.00 0.00 0.01 0.04 0.08 0.12 0.15 0.14 0.13 0.13 0.14 0.19 0.27 0.32 0.30 0.27 0.26 0.27 0.28 0.30 0.34 0.34 0.26 0.19 0.16

GEFSCGP_prec_meanprecacc_060.txt.gz
Total_Precipitation_Accumulation
0.00 0.00 0.01 0.01 0.01 0.01 0.03 0.06 0.18 0.22 0.15 0.23 0.28 0.44 0.53 0.55 0.50 0.41 0.34 0.31 0.34 0.39 0.51 0.73 1.19 1.85 2.60 3.26 3.38 2.95 2.51 2.23 1.96 1.65 1.17 0.85 0.74 0.71 0.67 0.57 0.51 0.46 0.42 0.43
0.00 0.02 0.01 0.01 0.01 0.03 0.04 0.06 0.17 0.23 0.14 0.16 0.27 0.52 0.72 0.67 0.55 0.42 0.36 0.36 0.42 0.59 0.82 1.29 2.09 2.61 2.61 2.47 2.08 1.69 1.50 1.37 1.10 0.83 0.57 0.46 0.41 0.38 0.36 0.34 0.36 0.34 0.29 0.30
0.01 0.03 0.02 0.01 0.03 0.08 0.09 0.09 0.17 0.23 0.12 0.11 0.27 0.66 0.83 0.75 0.59 0.41 0.32 0.31 0.52 0.84 1.26 1.86 2.26 2.14 1.59 1.09 0.90 0.82 0.76 0.56 0.41 0.37 0.33 0.28 0.25 0.25 0.23 0.22 0.24 0.24 0.21 0.22
0.01 0.02 0.02 0.02 0.04 0.08 0.08 0.05 0.05 0.08 0.12 0.27 0.43 0.86 0.94 0.70 0.65 0.50 0.42 0.36 0.47 0.66 0.88 1.16 1.27 1.01 0.83 0.72 0.64 0.67 0.59 0.37 0.29 0.25 0.21 0.19 0.18 0.20 0.19 0.19 0.19 0.19 0.17 0.18
0.02 0.02 0.02 0.02 0.03 0.03 0.03 0.03 0.03 0.08 0.16 0.31 0.46 0.68 0.78 0.60 0.68 0.51 0.36 0.32 0.32 0.45 0.50 0.47 0.46 0.41 0.39 0.40 0.44 0.52 0.52 0.46 0.37 0.30 0.24 0.21 0.19 0.18 0.19 0.19 0.19 0.20 0.20 0.18
0.03 0.03 0.02 0.01 0.01 0.02 0.03 0.04 0.10 0.17 0.26 0.55 0.59 0.65 0.81 0.73 0.77 0.56 0.37 0.28 0.28 0.41 0.43 0.35 0.27 0.23 0.24 0.26 0.27 0.34 0.45 0.56 0.52 0.44 0.36 0.30 0.24 0.21 0.20 0.19 0.19 0.19 0.18 0.18
0.08 0.06 0.03 0.02 0.02 0.04 0.05 0.06 0.20 0.48 0.74 0.79 0.49 0.54 0.78 0.62 0.57 0.41 0.21 0.15 0.23 0.37 0.45 0.42 0.31 0.23 0.18 0.17 0.15 0.13 0.16 0.27 0.30 0.30 0.31 0.31 0.30 0.26 0.21 0.18 0.15 0.17 0.16 0.16
0.13 0.11 0.05 0.03 0.03 0.05 0.03 0.02 0.07 0.14 0.18 0.28 0.34 0.60 0.76 0.60 0.38 0.17 0.07 0.06 0.15 0.22 0.25 0.25 0.19 0.13 0.08 0.06 0.06 0.04 0.04 0.07 0.08 0.10 0.13 0.18 0.21 0.17 0.15 0.21 0.17 0.17 0.21 0.22
0.04 0.04 0.03 0.03 0.04 0.04 0.02 0.01 0.02 0.03 0.04 0.15 0.37 0.59 0.54 0.46 0.31 0.13 0.07 0.05 0.06 0.08 0.09 0.10 0.10 0.08 0.06 0.04 0.03 0.03 0.02 0.02 0.02 0.03 0.05 0.09 0.15 0.15 0.14 0.16 0.17 0.16 0.22 0.23
0.01 0.02 0.03 0.03 0.03 0.03 0.02 0.01 0.01 0.02 0.05 0.10 0.25 0.51 0.61 0.47 0.32 0.13 0.08 0.07 0.06 0.08 0.07 0.07 0.06 0.06 0.05 0.04 0.04 0.04 0.03 0.02 0.02 0.02 0.03 0.05 0.12 0.15 0.16 0.15 0.17 0.19 0.19 0.19
0.00 0.01 0.03 0.03 0.03 0.04 0.03 0.02 0.02 0.02 0.03 0.06 0.12 0.25 0.25 0.20 0.13 0.09 0.05 0.03 0.04 0.04 0.05 0.04 0.04 0.04 0.04 0.03 0.03 0.03 0.03 0.03 0.02 0.02 0.02 0.02 0.06 0.10 0.14 0.18 0.19 0.20 0.19 0.18
0.00 0.00 0.02 0.04 0.04 0.03 0.03 0.03 0.02 0.03 0.03 0.03 0.06 0.15 0.10 0.10 0.09 0.06 0.02 0.01 0.01 0.01 0.01 0.01 0.02 0.02 0.02 0.03 0.03 0.04 0.04 0.03 0.03 0.02 0.02 0.01 0.01 0.03 0.06 0.11 0.14 0.17 0.17 0.15
0.00 0.00 0.01 0.08 0.13 0.07 0.03 0.03 0.03 0.03 0.04 0.03 0.11 0.20 0.11 0.05 0.04 0.02 0.01 0.00 0.00 0.00 0.00 0.01 0.01 0.02 0.03 0.03 0.03 0.02 0.02 0.02 0.01 0.01 0.01 0.01 0.01 0.01 0.02 0.05 0.08 0.11 0.13 0.15
0.00 0.00 0.01 0.06 0.11 0.07 0.04 0.04 0.05 0.05 0.02 0.02 0.06 0.16 0.07 0.02 0.01 0.00 0.00 0.00 0.00 0.00 0.00 0.00 0.01 0.01 0.01 0.01 0.01 0.00 0.00 0.00 0.00 0.01 0.01 0.01 0.02 0.02 0.02 0.02 0.04 0.06 0.09 0.13
0.00 0.00 0.00 0.00 0.01 0.02 0.03 0.05 0.05 0.02 0.01 0.03 0.04 0.07 0.03 0.01 0.01 0.00 0.00 0.00 0.00 0.00 0.01 0.01 0.01 0.01 0.01 0.02 0.02 0.02 0.03 0.03 0.04 0.05 0.05 0.06 0.06 0.06 0.05 0.05 0.05 0.06 0.09 0.11
0.00 0.00 0.00 0.00 0.01 0.02 0.03 0.06 0.03 0.01 0.00 0.00 0.00 0.01 0.00 0.00 0.01 0.01 0.02 0.03 0.04 0.04 0.04 0.04 0.04 0.03 0.02 0.02 0.02 0.02 0.03 0.03 0.04 0.05 0.05 0.05 0.05 0.05 0.06 0.06 0.06 0.07 0.10 0.15
0.00 0.00 0.00 0.00 0.01 0.02 0.08 0.04 0.01 0.00 0.00 0.00 0.00 0.00 0.00 0.01 0.01 0.02 0.05 0.06 0.05 0.03 0.02 0.01 0.01 0.00 0.00 0.00 0.00 0.00 0.01 0.01 0.02 0.03 0.03 0.03 0.05 0.05 0.07 0.07 0.08 0.10 0.14 0.19
0.00 0.00 0.00 0.00 0.00 0.05 0.07 0.01 0.00 0.00 0.00 0.00 0.00 0.00 0.00 0.00 0.01 0.01 0.01 0.01 0.00 0.00 0.00 0.00 0.00 0.00 0.00 0.00 0.00 0.00 0.00 0.01 0.01 0.02 0.03 0.04 0.06 0.08 0.09 0.13 0.15 0.19 0.23 0.24
0.02 0.01 0.01 0.01 0.00 0.03 0.03 0.02 0.01 0.01 0.01 0.00 0.00 0.00 0.00 0.00 0.00 0.00 0.00 0.00 0.00 0.00 0.00 0.00 0.00 0.00 0.00 0.00 0.00 0.01 0.01 0.01 0.02 0.03 0.05 0.06 0.09 0.11 0.14 0.16 0.22 0.29 0.32 0.31
0.03 0.03 0.02 0.01 0.01 0.03 0.04 0.04 0.02 0.02 0.03 0.01 0.01 0.00 0.00 0.00 0.00 0.00 0.00 0.00 0.00 0.00 0.00 0.00 0.00 0.00 0.00 0.01 0.01 0.02 0.02 0.04 0.05 0.07 0.08 0.10 0.14 0.19 0.21 0.24 0.29 0.33 0.38 0.39
0.03 0.03 0.02 0.01 0.00 0.01 0.02 0.02 0.02 0.04 0.05 0.02 0.01 0.01 0.00 0.00 0.00 0.00 0.00 0.00 0.00 0.00 0.00 0.00 0.00 0.00 0.01 0.01 0.03 0.06 0.07 0.09 0.10 0.11 0.11 0.13 0.17 0.23 0.26 0.32 0.37 0.39 0.41 0.43
0.03 0.03 0.02 0.01 0.03 0.04 0.03 0.03 0.03 0.03 0.02 0.01 0.01 0.00 0.00 0.00 0.00 0.00 0.00 0.00 0.00 0.00 0.00 0.00 0.00 0.00 0.01 0.03 0.07 0.11 0.12 0.12 0.12 0.13 0.14 0.14 0.17 0.19 0.21 0.31 0.36 0.40 0.47 0.49
0.01 0.01 0.01 0.02 0.03 0.03 0.04 0.03 0.02 0.02 0.01 0.00 0.00 0.00 0.00 0.00 0.00 0.00 0.00 0.00 0.00 0.00 0.00 0.00 0.00 0.01 0.02 0.05 0.10 0.15 0.14 0.14 0.15 0.16 0.16 0.17 0.18 0.22 0.28 0.34 0.35 0.36 0.41 0.42
0.01 0.01 0.01 0.01 0.02 0.03 0.04 0.02 0.01 0.00 0.00 0.00 0.00 0.00 0.00 0.00 0.00 0.00 0.00 0.00 0.00 0.00 0.00 0.00 0.02 0.04 0.06 0.07 0.09 0.12 0.13 0.16 0.20 0.21 0.20 0.21 0.23 0.25 0.29 0.37 0.38 0.38 0.38 0.37
0.01 0.02 0.02 0.03 0.03 0.05 0.05 0.03 0.01 0.00 0.00 0.00 0.00 0.00 0.00 0.00 0.00 0.00 0.00 0.00 0.00 0.00 0.01 0.02 0.06 0.10 0.10 0.09 0.10 0.10 0.15 0.22 0.26 0.25 0.24 0.24 0.27 0.29 0.29 0.35 0.39 0.33 0.34 0.30
0.00 0.01 0.01 0.02 0.01 0.02 0.03 0.02 0.00 0.00 0.00 0.00 0.00 0.00 0.00 0.00 0.00 0.00 0.00 0.00 0.00 0.01 0.04 0.08 0.12 0.15 0.14 0.13 0.13 0.14 0.19 0.28 0.33 0.32 0.29 0.28 0.28 0.29 0.31 0.34 0.35 0.28 0.20 0.17

GEFSCGP_prec_meanprecacc_066.txt.gz
Total_Precipitation_Accumulation
0.00 0.00 0.01 0.01 0.01 0.02 0.04 0.08 0.21 0.25 0.18 0.26 0.33 0.52 0.60 0.67 0.78 0.76 0.60 0.54 0.62 0.68 0.78 0.97 1.40 2.02 2.69 3.31 3.43 2.99 2.53 2.24 1.97 1.66 1.17 0.85 0.74 0.72 0.67 0.57 0.51 0.46 0.42 0.43
0.00 0.02 0.02 0.01 0.02 0.03 0.05 0.07 0.19 0.25 0.17 0.20 0.32 0.60 0.84 0.78 0.71 0.66 0.66 0.54 0.60 0.81 1.03 1.48 2.25 2.73 2.71 2.55 2.12 1.71 1.51 1.38 1.10 0.83 0.58 0.46 0.41 0.38 0.36 0.34 0.36 0.34 0.29 0.30
0.01 0.03 0.02 0.02 0.03 0.09 0.10 0.10 0.18 0.24 0.15 0.15 0.33 0.74 0.94 0.88 0.70 0.57 0.54 0.46 0.64 0.96 1.39 1.98 2.36 2.23 1.68 1.15 0.93 0.83 0.77 0.56 0.42 0.37 0.33 0.28 0.25 0.25 0.23 0.22 0.24 0.24 0.21 0.22
0.01 0.02 0.02 0.02 0.04 0.08 0.09 0.06 0.06 0.09 0.15 0.31 0.48 0.93 1.02 0.81 0.75 0.59 0.53 0.49 0.58 0.79 0.99 1.26 1.36 1.07 0.87 0.74 0.65 0.67 0.60 0.38 0.30 0.25 0.21 0.19 0.18 0.20 0.20 0.19 0.19 0.19 0.17 0.18
0.02 0.03 0.02 0.02 0.03 0.04 0.04 0.03 0.04 0.10 0.21 0.36 0.51 0.74 0.83 0.63 0.74 0.55 0.41 0.38 0.39 0.53 0.57 0.54 0.51 0.44 0.41 0.41 0.44 0.52 0.52 0.47 0.37 0.30 0.24 0.21 0.19 0.18 0.19 0.19 0.19 0.20 0.20 0.18
0.03 0.04 0.03 0.02 0.02 0.03 0.03 0.05 0.12 0.21 0.30 0.63 0.64 0.70 0.84 0.74 0.78 0.58 0.38 0.30 0.33 0.44 0.46 0.39 0.30 0.24 0.25 0.26 0.27 0.34 0.45 0.56 0.52 0.45 0.36 0.30 0.24 0.21 0.20 0.19 0.19 0.19 0.18 0.18
0.09 0.07 0.05 0.03 0.03 0.05 0.05 0.07 0.23 0.53 0.80 0.87 0.53 0.59 0.81 0.63 0.57 0.41 0.22 0.15 0.23 0.38 0.47 0.43 0.32 0.23 0.19 0.17 0.15 0.13 0.16 0.27 0.31 0.30 0.31 0.31 0.30 0.26 0.21 0.18 0.15 0.17 0.16 0.16
0.14 0.12 0.06 0.03 0.04 0.05 0.04 0.03 0.09 0.17 0.24 0.37 0.45 0.69 0.80 0.61 0.39 0.17 0.07 0.06 0.15 0.23 0.25 0.25 0.19 0.13 0.09 0.06 0.06 0.04 0.04 0.07 0.08 0.10 0.13 0.18 0.21 0.17 0.15 0.21 0.17 0.17 0.21 0.22
0.05 0.04 0.03 0.03 0.04 0.05 0.03 0.02 0.03 0.05 0.08 0.23 0.48 0.69 0.58 0.47 0.32 0.14 0.07 0.05 0.06 0.08 0.09 0.10 0.10 0.08 0.06 0.04 0.03 0.03 0.02 0.02 0.02 0.03 0.06 0.09 0.15 0.15 0.14 0.16 0.17 0.16 0.22 0.23
0.01 0.02 0.04 0.03 0.04 0.04 0.03 0.02 0.02 0.03 0.08 0.15 0.30 0.58 0.65 0.48 0.33 0.14 0.08 0.07 0.06 0.08 0.07 0.07 0.06 0.06 0.05 0.04 0.04 0.04 0.03 0.03 0.02 0.02 0.03 0.05 0.12 0.15 0.16 0.15 0.17 0.19 0.19 0.19
0.01 0.01 0.04 0.04 0.05 0.06 0.04 0.03 0.03 0.03 0.05 0.08 0.17 0.30 0.26 0.21 0.13 0.09 0.05 0.03 0.04 0.04 0.05 0.04 0.04 0.04 0.04 0.03 0.03 0.03 0.03 0.03 0.03 0.02 0.02 0.02 0.06 0.10 0.14 0.18 0.19 0.20 0.19 0.18
0.00 0.01 0.02 0.05 0.06 0.05 0.05 0.06 0.05 0.05 0.05 0.05 0.08 0.17 0.11 0.11 0.10 0.06 0.02 0.01 0.01 0.01 0.01 0.01 0.02 0.02 0.02 0.03 0.03 0.04 0.04 0.04 0.03 0.02 0.02 0.01 0.01 0.03 0.06 0.11 0.14 0.17 0.17 0.15
0.00 0.00 0.02 0.09 0.14 0.09 0.04 0.04 0.04 0.05 0.05 0.05 0.13 0.22 0.12 0.06 0.05 0.03 0.01 0.00 0.00 0.00 0.00 0.01 0.01 0.02 0.03 0.03 0.03 0.02 0.02 0.02 0.01 0.01 0.01 0.01 0.01 0.01 0.02 0.05 0.08 0.11 0.13 0.15
0.01 0.00 0.01 0.06 0.12 0.09 0.06 0.05 0.07 0.06 0.04 0.03 0.07 0.18 0.10 0.03 0.03 0.02 0.01 0.00 0.00 0.00 0.00 0.00 0.01 0.01 0.01 0.01 0.01 0.00 0.00 0.00 0.00 0.01 0.01 0.01 0.02 0.02 0.02 0.02 0.04 0.06 0.09 0.13
0.01 0.00 0.00 0.00 0.02 0.04 0.06 0.08 0.07 0.04 0.02 0.04 0.05 0.09 0.04 0.01 0.01 0.01 0.01 0.00 0.00 0.00 0.01 0.01 0.01 0.01 0.01 0.02 0.02 0.02 0.03 0.03 0.04 0.05 0.05 0.06 0.06 0.06 0.05 0.05 0.05 0.06 0.09 0.11
0.01 0.00 0.00 0.00 0.01 0.04 0.06 0.08 0.06 0.03 0.02 0.03 0.03 0.03 0.01 0.01 0.02 0.02 0.02 0.03 0.04 0.04 0.04 0.04 0.04 0.03 0.02 0.02 0.02 0.02 0.03 0.03 0.04 0.05 0.05 0.05 0.05 0.05 0.06 0.06 0.06 0.07 0.10 0.15
0.00 0.00 0.00 0.00 0.02 0.03 0.11 0.07 0.04 0.03 0.03 0.03 0.04 0.03 0.02 0.03 0.03 0.04 0.06 0.06 0.05 0.03 0.02 0.01 0.01 0.01 0.00 0.00 0.00 0.00 0.01 0.01 0.02 0.03 0.03 0.03 0.05 0.05 0.07 0.07 0.08 0.10 0.14 0.19
0.01 0.01 0.01 0.01 0.01 0.05 0.09 0.04 0.04 0.04 0.03 0.06 0.06 0.05 0.04 0.04 0.03 0.03 0.02 0.01 0.00 0.00 0.00 0.00 0.00 0.00 0.00 0.00 0.00 0.00 0.00 0.01 0.01 0.02 0.03 0.04 0.06 0.08 0.09 0.13 0.15 0.19 0.23 0.24
0.04 0.03 0.03 0.02 0.01 0.04 0.05 0.05 0.05 0.07 0.06 0.05 0.07 0.06 0.04 0.04 0.02 0.01 0.01 0.01 0.01 0.00 0.00 0.00 0.00 0.00 0.00 0.01 0.01 0.01 0.01 0.02 0.02 0.03 0.05 0.06 0.09 0.11 0.14 0.16 0.22 0.29 0.32 0.31
0.05 0.06 0.05 0.03 0.03 0.05 0.07 0.08 0.06 0.07 0.09 0.09 0.11 0.10 0.07 0.05 0.04 0.05 0.04 0.02 0.01 0.01 0.01 0.00 0.01 0.01 0.01 0.01 0.02 0.02 0.03 0.05 0.06 0.07 0.09 0.10 0.14 0.19 0.21 0.24 0.29 0.33 0.39 0.39
0.08 0.08 0.07 0.06 0.05 0.06 0.08 0.09 0.08 0.15 0.19 0.22 0.24 0.19 0.11 0.06 0.05 0.04 0.03 0.03 0.02 0.02 0.01 0.01 0.01 0.01 0.01 0.02 0.04 0.06 0.09 0.11 0.11 0.12 0.13 0.14 0.17 0.23 0.26 0.32 0.37 0.39 0.41 0.43
0.10 0.13 0.14 0.14 0.17 0.16 0.14 0.16 0.19 0.23 0.22 0.23 0.17 0.11 0.07 0.04 0.03 0.02 0.01 0.01 0.01 0.01 0.01 0.01 0.01 0.01 0.02 0.04 0.08 0.12 0.14 0.14 0.15 0.15 0.15 0.15 0.18 0.19 0.22 0.32 0.37 0.42 0.48 0.50
0.07 0.08 0.10 0.14 0.17 0.17 0.17 0.14 0.12 0.09 0.08 0.06 0.03 0.02 0.02 0.01 0.01 0.01 0.00 0.00 0.00 0.00 0.01 0.01 0.01 0.02 0.04 0.07 0.12 0.17 0.16 0.16 0.18 0.19 0.19 0.19 0.20 0.25 0.30 0.36 0.36 0.38 0.42 0.43
0.04 0.03 0.05 0.09 0.14 0.17 0.15 0.10 0.06 0.04 0.03 0.02 0.01 0.01 0.01 0.00 0.00 0.00 0.00 0.00 0.00 0.00 0.01 0.01 0.03 0.05 0.07 0.09 0.12 0.14 0.16 0.20 0.24 0.25 0.25 0.25 0.27 0.28 0.31 0.39 0.40 0.39 0.39 0.39
0.02 0.04 0.07 0.12 0.18 0.21 0.18 0.12 0.07 0.04 0.02 0.01 0.00 0.00 0.00 0.00 0.00 0.00 0.00 0.00 0.00 0.01 0.02 0.04 0.07 0.11 0.13 0.12 0.13 0.14 0.17 0.25 0.30 0.29 0.29 0.29 0.31 0.31 0.31 0.37 0.40 0.35 0.35 0.33
0.01 0.02 0.05 0.10 0.15 0.18 0.16 0.09 0.05 0.03 0.01 0.00 0.00 0.00 0.00 0.00 0.00 0.00 0.00 0.00 0.01 0.02 0.04 0.09 0.13 0.16 0.16 0.15 0.16 0.16 0.21 0.30 0.37 0.36 0.33 0.32 0.31 0.32 0.33 0.36 0.36 0.29 0.23 0.20

GEFSCGP_prec_meanprecacc_072.txt.gz
Total_Precipitation_Accumulation
0.00 0.00 0.01 0.01 0.01 0.02 0.04 0.09 0.21 0.25 0.18 0.27 0.34 0.53 0.61 0.69 0.81 0.80 0.65 0.61 0.74 0.81 0.95 1.15 1.60 2.26 2.95 3.58 3.64 3.12 2.61 2.29 2.00 1.67 1.17 0.85 0.74 0.72 0.67 0.57 0.51 0.46 0.42 0.43
0.00 0.02 0.02 0.01 0.02 0.03 0.06 0.08 0.19 0.25 0.17 0.20 0.33 0.62 0.86 0.80 0.73 0.69 0.69 0.59 0.68 0.91 1.17 1.67 2.45 2.94 2.93 2.80 2.33 1.85 1.58 1.42 1.13 0.84 0.58 0.46 0.41 0.38 0.36 0.34 0.36 0.34 0.29 0.30
0.01 0.03 0.02 0.02 0.03 0.09 0.10 0.10 0.18 0.24 0.15 0.15 0.34 0.75 0.95 0.90 0.72 0.59 0.57 0.50 0.70 1.05 1.50 2.13 2.52 2.40 1.91 1.36 1.11 0.95 0.83 0.59 0.43 0.38 0.33 0.28 0.25 0.25 0.23 0.22 0.24 0.24 0.21 0.22
0.01 0.02 0.02 0.02 0.04 0.08 0.09 0.06 0.06 0.09 0.15 0.32 0.48 0.94 1.02 0.82 0.76 0.60 0.56 0.53 0.62 0.84 1.06 1.37 1.48 1.18 1.04 0.90 0.77 0.74 0.64 0.40 0.31 0.25 0.21 0.19 0.18 0.20 0.20 0.19 0.19 0.19 0.17 0.18
0.02 0.03 0.02 0.02 0.03 0.04 0.04 0.03 0.04 0.10 0.21 0.36 0.51 0.74 0.83 0.63 0.74 0.55 0.42 0.40 0.41 0.56 0.61 0.61 0.59 0.51 0.49 0.49 0.50 0.56 0.55 0.48 0.38 0.30 0.24 0.21 0.19 0.18 0.19 0.19 0.19 0.20 0.20 0.18
0.03 0.04 0.03 0.02 0.02 0.03 0.03 0.05 0.12 0.21 0.30 0.63 0.64 0.70 0.84 0.74 0.78 0.58 0.39 0.30 0.34 0.46 0.49 0.43 0.36 0.30 0.30 0.30 0.30 0.36 0.46 0.56 0.52 0.45 0.36 0.30 0.24 0.21 0.20 0.19 0.19 0.19 0.18 0.18
0.09 0.07 0.05 0.03 0.03 0.05 0.05 0.07 0.23 0.54 0.80 0.87 0.53 0.59 0.81 0.63 0.57 0.41 0.22 0.15 0.23 0.38 0.49 0.46 0.37 0.27 0.21 0.19 0.17 0.14 0.17 0.28 0.31 0.30 0.31 0.32 0.30 0.26 0.21 0.18 0.15 0.17 0.16 0.16
0.14 0.12 0.06 0.03 0.04 0.06 0.04 0.03 0.09 0.18 0.24 0.37 0.45 0.69 0.80 0.61 0.39 0.17 0.07 0.06 0.15 0.23 0.26 0.26 0.23 0.15 0.10 0.08 0.06 0.05 0.04 0.07 0.08 0.10 0.13 0.18 0.22 0.17 0.15 0.21 0.17 0.17 0.21 0.22
0.05 0.05 0.04 0.03 0.05 0.05 0.03 0.02 0.03 0.05 0.08 0.23 0.48 0.69 0.59 0.47 0.32 0.14 0.07 0.05 0.06 0.08 0.09 0.10 0.11 0.09 0.06 0.05 0.04 0.03 0.02 0.02 0.02 0.03 0.06 0.10 0.15 0.16 0.14 0.16 0.17 0.16 0.22 0.23
0.01 0.02 0.04 0.04 0.04 0.05 0.03 0.02 0.02 0.04 0.08 0.15 0.30 0.58 0.65 0.48 0.33 0.14 0.08 0.07 0.06 0.08 0.07 0.07 0.07 0.06 0.05 0.04 0.04 0.04 0.03 0.03 0.02 0.02 0.03 0.05 0.12 0.15 0.16 0.15 0.17 0.19 0.19 0.19
0.01 0.02 0.04 0.04 0.05 0.06 0.05 0.03 0.03 0.03 0.05 0.09 0.17 0.30 0.26 0.21 0.13 0.09 0.05 0.03 0.04 0.04 0.05 0.04 0.04 0.04 0.04 0.03 0.03 0.03 0.03 0.03 0.03 0.02 0.02 0.02 0.06 0.10 0.14 0.18 0.19 0.20 0.19 0.18
0.01 0.01 0.02 0.05 0.06 0.06 0.06 0.06 0.05 0.05 0.05 0.06 0.08 0.17 0.11 0.11 0.10 0.06 0.03 0.01 0.01 0.01 0.01 0.01 0.02 0.02 0.02 0.03 0.03 0.04 0.04 0.04 0.03 0.03 0.02 0.01 0.02 0.03 0.06 0.11 0.14 0.17 0.17 0.15
0.01 0.01 0.02 0.09 0.14 0.09 0.04 0.04 0.04 0.05 0.05 0.05 0.13 0.22 0.12 0.07 0.05 0.03 0.01 0.00 0.00 0.00 0.00 0.01 0.01 0.02 0.03 0.03 0.03 0.02 0.02 0.02 0.02 0.01 0.01 0.01 0.01 0.01 0.02 0.05 0.08 0.11 0.13 0.15
0.01 0.01 0.01 0.06 0.12 0.09 0.06 0.05 0.07 0.06 0.04 0.03 0.08 0.19 0.10 0.04 0.03 0.02 0.01 0.00 0.00 0.00 0.01 0.00 0.01 0.01 0.01 0.01 0.01 0.01 0.01 0.01 0.01 0.01 0.01 0.01 0.02 0.02 0.02 0.02 0.04 0.06 0.09 0.13
0.01 0.00 0.00 0.01 0.02 0.04 0.06 0.08 0.07 0.04 0.02 0.04 0.05 0.09 0.04 0.02 0.02 0.01 0.01 0.01 0.01 0.01 0.01 0.02 0.02 0.01 0.01 0.02 0.02 0.03 0.03 0.03 0.04 0.05 0.06 0.06 0.06 0.06 0.05 0.05 0.05 0.06 0.09 0.11
0.01 0.01 0.01 0.01 0.02 0.04 0.06 0.09 0.06 0.03 0.03 0.03 0.03 0.03 0.02 0.02 0.02 0.02 0.03 0.04 0.04 0.05 0.05 0.05 0.04 0.03 0.03 0.03 0.03 0.03 0.03 0.03 0.04 0.06 0.06 0.05 0.05 0.06 0.06 0.06 0.06 0.07 0.10 0.15
0.01 0.01 0.00 0.00 0.02 0.03 0.11 0.07 0.04 0.04 0.04 0.04 0.04 0.04 0.03 0.04 0.05 0.05 0.07 0.07 0.06 0.04 0.02 0.02 0.02 0.02 0.02 0.01 0.01 0.01 0.01 0.02 0.02 0.03 0.03 0.04 0.05 0.06 0.07 0.07 0.08 0.10 0.14 0.19
0.01 0.01 0.01 0.01 0.01 0.05 0.09 0.05 0.04 0.04 0.04 0.06 0.07 0.06 0.05 0.06 0.05 0.05 0.04 0.03 0.03 0.02 0.02 0.02 0.02 0.01 0.01 0.01 0.01 0.01 0.01 0.02 0.02 0.03 0.04 0.05 0.07 0.08 0.10 0.13 0.15 0.19 0.23 0.24
0.04 0.04 0.03 0.02 0.01 0.04 0.05 0.05 0.06 0.09 0.08 0.06 0.09 0.10 0.08 0.07 0.05 0.03 0.03 0.03 0.04 0.03 0.02 0.02 0.02 0.01 0.01 0.01 0.01 0.02 0.02 0.03 0.04 0.05 0.06 0.08 0.10 0.12 0.14 0.17 0.22 0.29 0.32 0.31
0.06 0.06 0.05 0.03 0.03 0.05 0.07 0.09 0.08 0.08 0.11 0.10 0.13 0.13 0.10 0.09 0.10 0.11 0.09 0.07 0.05 0.03 0.02 0.02 0.02 0.02 0.02 0.02 0.03 0.03 0.04 0.06 0.08 0.10 0.12 0.13 0.16 0.21 0.22 0.25 0.30 0.35 0.40 0.40
0.09 0.09 0.08 0.06 0.05 0.06 0.09 0.11 0.12 0.19 0.22 0.24 0.26 0.21 0.13 0.10 0.10 0.10 0.08 0.06 0.04 0.03 0.03 0.02 0.02 0.01 0.02 0.02 0.05 0.08 0.11 0.14 0.16 0.17 0.17 0.18 0.21 0.26 0.29 0.35 0.40 0.42 0.44 0.46
0.11 0.14 0.15 0.14 0.18 0.17 0.16 0.18 0.22 0.26 0.25 0.25 0.19 0.14 0.09 0.06 0.05 0.05 0.03 0.02 0.02 0.02 0.01 0.01 0.01 0.02 0.02 0.05 0.09 0.13 0.16 0.18 0.20 0.20 0.21 0.21 0.24 0.25 0.27 0.37 0.41 0.46 0.52 0.54
0.08 0.09 0.11 0.14 0.18 0.18 0.19 0.17 0.15 0.12 0.09 0.07 0.05 0.03 0.03 0.03 0.02 0.02 0.02 0.01 0.01 0.01 0.01 0.01 0.01 0.02 0.04 0.08 0.13 0.19 0.18 0.19 0.21 0.23 0.23 0.24 0.25 0.30 0.35 0.39 0.39 0.40 0.44 0.45
0.04 0.04 0.05 0.10 0.14 0.18 0.17 0.12 0.09 0.06 0.04 0.03 0.03 0.03 0.03 0.03 0.02 0.01 0.01 0.01 0.01 0.01 0.01 0.02 0.03 0.05 0.08 0.10 0.13 0.16 0.18 0.22 0.26 0.28 0.28 0.29 0.30 0.31 0.34 0.41 0.41 0.40 0.40 0.40
0.02 0.04 0.07 0.13 0.19 0.22 0.19 0.14 0.10 0.06 0.04 0.03 0.02 0.03 0.03 0.02 0.02 0.01 0.01 0.00 0.01 0.01 0.02 0.04 0.08 0.12 0.13 0.13 0.13 0.14 0.18 0.26 0.31 0.31 0.30 0.31 0.33 0.33 0.33 0.39 0.42 0.36 0.37 0.34
0.01 0.02 0.05 0.12 0.16 0.20 0.19 0.12 0.07 0.05 0.03 0.02 0.02 0.02 0.02 0.01 0.01 0.00 0.00 0.01 0.01 0.02 0.05 0.09 0.13 0.16 0.16 0.15 0.16 0.17 0.21 0.31 0.37 0.37 0.34 0.33 0.33 0.33 0.34 0.37 0.37 0.30 0.23 0.20

GEFSCGP_prec_meanprecacc_078.txt.gz
Total_Precipitation_Accumulation
0.00 0.00 0.01 0.01 0.01 0.02 0.04 0.09 0.21 0.25 0.18 0.27 0.34 0.53 0.62 0.69 0.82 0.82 0.67 0.65 0.82 0.91 1.05 1.27 1.71 2.36 3.10 3.80 3.86 3.29 2.76 2.43 2.11 1.75 1.23 0.90 0.77 0.72 0.68 0.57 0.51 0.46 0.42 0.43
0.00 0.02 0.02 0.01 0.02 0.03 0.06 0.08 0.19 0.25 0.17 0.20 0.34 0.62 0.86 0.80 0.74 0.70 0.70 0.61 0.72 0.98 1.28 1.77 2.55 3.04 3.04 3.00 2.55 2.01 1.72 1.54 1.23 0.91 0.63 0.50 0.43 0.39 0.36 0.34 0.36 0.34 0.29 0.30
0.01 0.03 0.02 0.02 0.03 0.09 0.10 0.10 0.18 0.24 0.15 0.15 0.34 0.75 0.95 0.90 0.72 0.59 0.58 0.50 0.71 1.07 1.56 2.20 2.59 2.48 2.01 1.50 1.26 1.08 0.95 0.68 0.51 0.43 0.37 0.31 0.26 0.25 0.23 0.22 0.25 0.24 0.21 0.22
0.01 0.02 0.02 0.02 0.04 0.08 0.09 0.06 0.06 0.09 0.15 0.32 0.48 0.94 1.02 0.82 0.76 0.60 0.56 0.53 0.62 0.85 1.08 1.40 1.52 1.25 1.12 1.02 0.91 0.86 0.75 0.46 0.36 0.29 0.24 0.21 0.19 0.20 0.20 0.19 0.19 0.19 0.17 0.18
0.02 0.03 0.02 0.02 0.03 0.04 0.04 0.03 0.04 0.10 0.21 0.36 0.51 0.74 0.83 0.63 0.74 0.56 0.42 0.40 0.42 0.56 0.63 0.63 0.63 0.57 0.56 0.57 0.60 0.63 0.61 0.53 0.41 0.33 0.26 0.23 0.20 0.18 0.19 0.19 0.19 0.20 0.20 0.18
0.03 0.04 0.03 0.02 0.02 0.03 0.03 0.05 0.12 0.21 0.30 0.63 0.64 0.70 0.84 0.74 0.78 0.58 0.39 0.30 0.34 0.46 0.50 0.46 0.39 0.32 0.33 0.36 0.34 0.39 0.50 0.59 0.54 0.46 0.37 0.31 0.24 0.22 0.20 0.19 0.19 0.19 0.18 0.18
0.09 0.07 0.05 0.03 0.03 0.05 0.05 0.07 0.23 0.54 0.80 0.87 0.53 0.59 0.81 0.63 0.57 0.41 0.22 0.15 0.23 0.38 0.49 0.47 0.38 0.28 0.23 0.22 0.19 0.16 0.18 0.29 0.32 0.31 0.32 0.32 0.30 0.26 0.21 0.18 0.16 0.17 0.16 0.16
0.14 0.12 0.06 0.03 0.04 0.06 0.04 0.03 0.09 0.18 0.24 0.37 0.45 0.69 0.80 0.61 0.39 0.17 0.07 0.06 0.15 0.23 0.26 0.27 0.24 0.16 0.11 0.09 0.08 0.06 0.06 0.08 0.09 0.10 0.14 0.18 0.22 0.17 0.15 0.21 0.17 0.18 0.21 0.22
0.05 0.05 0.04 0.04 0.05 0.05 0.03 0.02 0.03 0.05 0.08 0.23 0.48 0.69 0.59 0.47 0.32 0.14 0.07 0.05 0.06 0.08 0.09 0.11 0.12 0.09 0.07 0.06 0.05 0.04 0.03 0.03 0.03 0.03 0.06 0.10 0.15 0.16 0.14 0.17 0.17 0.16 0.22 0.23
0.02 0.02 0.04 0.04 0.05 0.05 0.03 0.02 0.02 0.04 0.08 0.15 0.30 0.58 0.65 0.48 0.33 0.14 0.08 0.07 0.06 0.08 0.07 0.07 0.07 0.06 0.05 0.05 0.05 0.05 0.04 0.03 0.02 0.02 0.03 0.05 0.12 0.15 0.16 0.15 0.17 0.19 0.19 0.19
0.02 0.02 0.04 0.05 0.05 0.07 0.05 0.03 0.03 0.03 0.05 0.09 0.18 0.30 0.26 0.21 0.13 0.09 0.05 0.03 0.04 0.04 0.05 0.04 0.04 0.04 0.04 0.03 0.03 0.03 0.03 0.03 0.03 0.02 0.02 0.02 0.06 0.10 0.14 0.18 0.19 0.20 0.19 0.18
0.01 0.01 0.03 0.06 0.06 0.06 0.06 0.06 0.05 0.05 0.05 0.06 0.08 0.17 0.11 0.11 0.10 0.06 0.03 0.01 0.01 0.01 0.01 0.01 0.02 0.02 0.02 0.03 0.03 0.04 0.04 0.04 0.03 0.03 0.02 0.02 0.02 0.03 0.07 0.11 0.15 0.17 0.17 0.15
0.01 0.01 0.02 0.09 0.14 0.09 0.05 0.04 0.04 0.05 0.05 0.05 0.13 0.22 0.13 0.07 0.05 0.03 0.01 0.00 0.00 0.00 0.01 0.01 0.01 0.02 0.03 0.03 0.03 0.02 0.02 0.02 0.02 0.01 0.01 0.01 0.01 0.01 0.03 0.05 0.08 0.11 0.13 0.15
0.02 0.01 0.01 0.07 0.12 0.09 0.06 0.05 0.07 0.06 0.04 0.03 0.08 0.19 0.10 0.04 0.03 0.02 0.01 0.01 0.01 0.01 0.01 0.01 0.01 0.01 0.01 0.01 0.01 0.01 0.01 0.01 0.01 0.01 0.01 0.02 0.02 0.02 0.02 0.02 0.04 0.06 0.09 0.13
0.02 0.01 0.01 0.01 0.02 0.04 0.06 0.08 0.07 0.04 0.02 0.04 0.05 0.09 0.04 0.02 0.02 0.01 0.01 0.01 0.01 0.01 0.01 0.02 0.02 0.02 0.02 0.02 0.02 0.03 0.03 0.04 0.04 0.05 0.06 0.06 0.06 0.06 0.06 0.05 0.05 0.06 0.09 0.11
0.02 0.01 0.01 0.01 0.02 0.04 0.06 0.09 0.06 0.03 0.03 0.03 0.03 0.03 0.02 0.02 0.02 0.02 0.03 0.04 0.05 0.06 0.06 0.05 0.04 0.04 0.03 0.03 0.03 0.03 0.03 0.03 0.04 0.06 0.06 0.06 0.06 0.06 0.07 0.06 0.06 0.07 0.10 0.15
0.01 0.01 0.01 0.01 0.02 0.03 0.11 0.07 0.04 0.04 0.04 0.04 0.04 0.04 0.03 0.04 0.05 0.05 0.07 0.07 0.06 0.05 0.03 0.03 0.03 0.03 0.03 0.02 0.02 0.01 0.02 0.02 0.03 0.04 0.04 0.05 0.06 0.06 0.08 0.08 0.08 0.10 0.14 0.19
0.02 0.01 0.01 0.01 0.01 0.06 0.09 0.05 0.04 0.04 0.04 0.06 0.07 0.06 0.06 0.06 0.06 0.05 0.05 0.04 0.03 0.03 0.03 0.03 0.03 0.03 0.02 0.02 0.02 0.02 0.02 0.02 0.03 0.04 0.04 0.06 0.07 0.09 0.11 0.14 0.16 0.19 0.23 0.25
0.05 0.04 0.03 0.03 0.02 0.04 0.05 0.05 0.06 0.09 0.08 0.06 0.09 0.10 0.08 0.07 0.05 0.04 0.05 0.05 0.05 0.05 0.04 0.03 0.03 0.03 0.03 0.02 0.02 0.02 0.03 0.04 0.04 0.05 0.07 0.09 0.12 0.14 0.16 0.18 0.23 0.31 0.33 0.32
0.07 0.07 0.06 0.04 0.04 0.06 0.07 0.09 0.08 0.09 0.12 0.10 0.13 0.13 0.10 0.09 0.12 0.13 0.11 0.09 0.07 0.05 0.04 0.03 0.03 0.03 0.03 0.04 0.04 0.04 0.05 0.07 0.09 0.11 0.13 0.15 0.18 0.22 0.24 0.27 0.32 0.36 0.41 0.41
0.11 0.10 0.09 0.07 0.06 0.06 0.09 0.11 0.12 0.20 0.23 0.24 0.26 0.21 0.14 0.11 0.12 0.12 0.09 0.08 0.06 0.05 0.04 0.03 0.02 0.02 0.03 0.04 0.05 0.08 0.11 0.15 0.17 0.19 0.19 0.20 0.23 0.28 0.30 0.36 0.41 0.43 0.45 0.47
0.12 0.16 0.17 0.16 0.19 0.18 0.16 0.18 0.23 0.28 0.25 0.25 0.20 0.14 0.10 0.08 0.07 0.05 0.04 0.03 0.03 0.03 0.02 0.02 0.02 0.02 0.03 0.05 0.09 0.14 0.17 0.19 0.20 0.21 0.22 0.22 0.25 0.26 0.29 0.38 0.43 0.47 0.53 0.55
0.09 0.10 0.12 0.15 0.19 0.19 0.19 0.17 0.15 0.12 0.09 0.07 0.05 0.04 0.04 0.04 0.04 0.03 0.02 0.02 0.02 0.01 0.02 0.02 0.02 0.03 0.05 0.08 0.14 0.19 0.18 0.19 0.22 0.23 0.24 0.25 0.26 0.30 0.35 0.40 0.40 0.41 0.44 0.45
0.05 0.04 0.06 0.10 0.15 0.18 0.17 0.12 0.09 0.07 0.05 0.04 0.03 0.04 0.05 0.04 0.03 0.02 0.02 0.01 0.01 0.01 0.02 0.02 0.03 0.06 0.08 0.10 0.13 0.16 0.18 0.22 0.27 0.28 0.28 0.29 0.30 0.32 0.34 0.42 0.42 0.41 0.41 0.40
0.02 0.04 0.08 0.14 0.19 0.22 0.19 0.14 0.11 0.07 0.05 0.04 0.05 0.05 0.05 0.04 0.03 0.02 0.01 0.01 0.01 0.01 0.02 0.04 0.08 0.12 0.13 0.13 0.13 0.15 0.18 0.26 0.31 0.31 0.30 0.31 0.33 0.33 0.33 0.39 0.42 0.36 0.37 0.34
0.01 0.02 0.06 0.12 0.17 0.20 0.19 0.13 0.08 0.06 0.05 0.06 0.06 0.06 0.05 0.04 0.02 0.01 0.01 0.01 0.01 0.02 0.05 0.09 0.13 0.16 0.16 0.15 0.16 0.17 0.21 0.31 0.37 0.37 0.34 0.33 0.33 0.33 0.34 0.37 0.37 0.30 0.23 0.21

GEFSCGP_prec_meanprecacc_084.txt.gz
Total_Precipitation_Accumulation
0.00 0.00 0.01 0.01 0.01 0.02 0.04 0.09 0.21 0.26 0.18 0.27 0.34 0.53 0.62 0.69 0.83 0.83 0.70 0.68 0.88 1.02 1.16 1.36 1.79 2.45 3.20 3.93 4.05 3.46 2.91 2.56 2.26 1.90 1.35 0.99 0.83 0.75 0.68 0.58 0.51 0.46 0.42 0.44
0.00 0.02 0.02 0.01 0.02 0.03 0.06 0.08 0.19 0.26 0.17 0.20 0.34 0.62 0.86 0.80 0.74 0.71 0.71 0.64 0.76 1.05 1.39 1.87 2.64 3.13 3.14 3.09 2.65 2.12 1.85 1.68 1.38 1.08 0.75 0.58 0.48 0.41 0.36 0.34 0.36 0.34 0.29 0.30
0.01 0.03 0.02 0.02 0.03 0.09 0.10 0.10 0.18 0.24 0.15 0.15 0.34 0.75 0.96 0.91 0.72 0.60 0.58 0.51 0.72 1.11 1.64 2.28 2.66 2.57 2.09 1.60 1.36 1.19 1.07 0.82 0.68 0.61 0.47 0.38 0.30 0.27 0.25 0.24 0.25 0.24 0.21 0.22
0.01 0.02 0.02 0.02 0.04 0.08 0.09 0.06 0.06 0.09 0.15 0.32 0.48 0.95 1.04 0.83 0.77 0.60 0.56 0.54 0.63 0.87 1.15 1.48 1.59 1.33 1.20 1.11 1.01 0.97 0.87 0.58 0.48 0.41 0.33 0.27 0.22 0.22 0.22 0.20 0.20 0.19 0.17 0.18
0.02 0.03 0.02 0.02 0.03 0.04 0.04 0.03 0.04 0.10 0.21 0.38 0.54 0.76 0.84 0.63 0.74 0.56 0.42 0.40 0.42 0.57 0.65 0.67 0.68 0.64 0.62 0.63 0.68 0.74 0.74 0.63 0.51 0.42 0.34 0.29 0.23 0.21 0.20 0.20 0.20 0.21 0.20 0.18
0.03 0.04 0.03 0.02 0.02 0.03 0.03 0.05 0.12 0.22 0.36 0.74 0.71 0.71 0.85 0.74 0.78 0.58 0.39 0.31 0.35 0.47 0.52 0.50 0.44 0.39 0.40 0.42 0.40 0.49 0.61 0.69 0.63 0.54 0.43 0.35 0.28 0.25 0.23 0.21 0.20 0.20 0.18 0.18
0.09 0.07 0.05 0.03 0.03 0.05 0.05 0.07 0.23 0.55 0.87 0.96 0.57 0.60 0.81 0.63 0.57 0.41 0.22 0.16 0.25 0.39 0.51 0.49 0.41 0.32 0.27 0.26 0.23 0.24 0.27 0.37 0.39 0.36 0.37 0.35 0.33 0.29 0.24 0.20 0.17 0.17 0.16 0.16
0.14 0.12 0.06 0.03 0.04 0.06 0.04 0.03 0.10 0.19 0.25 0.38 0.46 0.70 0.80 0.61 0.39 0.17 0.07 0.06 0.16 0.23 0.27 0.28 0.26 0.20 0.13 0.11 0.11 0.10 0.12 0.14 0.15 0.15 0.18 0.21 0.24 0.19 0.17 0.23 0.18 0.18 0.21 0.22
0.05 0.05 0.04 0.04 0.05 0.05 0.03 0.02 0.03 0.06 0.09 0.24 0.51 0.71 0.60 0.48 0.32 0.14 0.07 0.05 0.06 0.08 0.09 0.12 0.13 0.12 0.09 0.08 0.07 0.07 0.08 0.08 0.07 0.07 0.09 0.12 0.17 0.17 0.16 0.18 0.18 0.16 0.22 0.23
0.02 0.02 0.04 0.04 0.05 0.05 0.03 0.02 0.02 0.04 0.09 0.16 0.33 0.62 0.69 0.51 0.34 0.14 0.08 0.07 0.06 0.08 0.07 0.07 0.07 0.07 0.06 0.06 0.07 0.07 0.07 0.06 0.05 0.05 0.05 0.07 0.13 0.16 0.17 0.16 0.18 0.19 0.19 0.19
0.02 0.02 0.05 0.05 0.06 0.07 0.05 0.04 0.03 0.03 0.05 0.09 0.20 0.34 0.29 0.22 0.14 0.09 0.05 0.03 0.04 0.04 0.05 0.04 0.04 0.04 0.04 0.04 0.05 0.05 0.06 0.05 0.04 0.04 0.03 0.04 0.07 0.10 0.15 0.18 0.19 0.21 0.20 0.18
0.01 0.01 0.03 0.06 0.07 0.07 0.07 0.06 0.05 0.05 0.05 0.06 0.09 0.19 0.12 0.12 0.10 0.06 0.03 0.01 0.01 0.01 0.01 0.02 0.02 0.04 0.04 0.03 0.04 0.04 0.05 0.04 0.04 0.03 0.03 0.03 0.03 0.04 0.07 0.12 0.15 0.17 0.17 0.15
0.01 0.01 0.02 0.10 0.16 0.12 0.07 0.05 0.05 0.05 0.05 0.05 0.14 0.25 0.15 0.08 0.07 0.05 0.02 0.01 0.00 0.00 0.01 0.01 0.02 0.05 0.06 0.04 0.03 0.03 0.03 0.03 0.02 0.02 0.01 0.02 0.02 0.02 0.04 0.06 0.09 0.11 0.14 0.15
0.02 0.01 0.01 0.08 0.15 0.15 0.12 0.08 0.08 0.07 0.04 0.04 0.09 0.22 0.15 0.08 0.10 0.06 0.02 0.01 0.01 0.01 0.01 0.01 0.01 0.02 0.02 0.01 0.01 0.01 0.03 0.06 0.03 0.02 0.02 0.03 0.03 0.03 0.04 0.03 0.05 0.07 0.10 0.13
0.02 0.01 0.01 0.01 0.03 0.06 0.08 0.09 0.08 0.05 0.02 0.04 0.06 0.13 0.10 0.11 0.11 0.08 0.03 0.01 0.01 0.02 0.02 0.02 0.03 0.04 0.04 0.03 0.03 0.04 0.04 0.05 0.07 0.08 0.08 0.10 0.09 0.09 0.09 0.08 0.07 0.08 0.10 0.12
0.02 0.01 0.01 0.01 0.02 0.05 0.07 0.09 0.06 0.04 0.03 0.03 0.04 0.05 0.04 0.08 0.09 0.07 0.05 0.04 0.05 0.06 0.06 0.06 0.05 0.05 0.05 0.05 0.05 0.04 0.05 0.06 0.06 0.09 0.09 0.09 0.10 0.10 0.12 0.12 0.12 0.12 0.14 0.18
0.04 0.02 0.01 0.01 0.03 0.04 0.11 0.08 0.04 0.04 0.04 0.04 0.04 0.05 0.05 0.07 0.10 0.09 0.07 0.07 0.06 0.05 0.04 0.03 0.03 0.04 0.04 0.03 0.02 0.02 0.03 0.03 0.04 0.07 0.08 0.09 0.09 0.11 0.13 0.14 0.15 0.17 0.20 0.23
0.12 0.07 0.03 0.02 0.03 0.08 0.10 0.05 0.05 0.05 0.05 0.06 0.07 0.07 0.07 0.08 0.07 0.06 0.05 0.04 0.03 0.04 0.04 0.04 0.03 0.03 0.03 0.02 0.03 0.03 0.03 0.04 0.06 0.07 0.10 0.12 0.14 0.16 0.18 0.20 0.22 0.25 0.28 0.29
0.20 0.15 0.07 0.04 0.04 0.07 0.09 0.09 0.08 0.10 0.09 0.07 0.10 0.11 0.09 0.08 0.05 0.05 0.05 0.05 0.05 0.05 0.04 0.03 0.04 0.04 0.04 0.04 0.05 0.05 0.07 0.09 0.11 0.13 0.16 0.18 0.21 0.23 0.24 0.25 0.29 0.36 0.39 0.38
0.22 0.21 0.11 0.06 0.07 0.11 0.11 0.14 0.10 0.10 0.13 0.11 0.15 0.16 0.13 0.12 0.16 0.17 0.12 0.09 0.07 0.05 0.04 0.04 0.04 0.05 0.06 0.08 0.09 0.09 0.11 0.13 0.15 0.18 0.20 0.20 0.24 0.28 0.29 0.31 0.36 0.40 0.46 0.46
0.19 0.21 0.17 0.12 0.11 0.10 0.13 0.15 0.15 0.25 0.31 0.27 0.29 0.24 0.17 0.16 0.19 0.16 0.11 0.08 0.06 0.05 0.05 0.04 0.04 0.04 0.04 0.06 0.08 0.12 0.16 0.21 0.23 0.24 0.23 0.24 0.27 0.32 0.33 0.39 0.44 0.45 0.47 0.49
0.23 0.25 0.24 0.23 0.28 0.27 0.24 0.29 0.35 0.40 0.32 0.30 0.24 0.19 0.15 0.13 0.11 0.08 0.05 0.04 0.03 0.03 0.03 0.03 0.03 0.03 0.04 0.06 0.11 0.15 0.19 0.21 0.22 0.23 0.24 0.24 0.27 0.29 0.31 0.41 0.45 0.49 0.55 0.56
0.28 0.28 0.28 0.28 0.33 0.30 0.29 0.31 0.28 0.19 0.13 0.09 0.07 0.05 0.06 0.06 0.05 0.03 0.02 0.02 0.02 0.02 0.02 0.02 0.03 0.04 0.05 0.09 0.15 0.20 0.19 0.20 0.23 0.25 0.25 0.27 0.27 0.32 0.37 0.42 0.42 0.42 0.46 0.46
0.29 0.21 0.25 0.32 0.36 0.34 0.25 0.15 0.12 0.08 0.05 0.04 0.05 0.05 0.06 0.06 0.04 0.02 0.02 0.02 0.02 0.02 0.03 0.03 0.05 0.07 0.10 0.12 0.15 0.18 0.20 0.24 0.28 0.29 0.29 0.30 0.31 0.32 0.35 0.42 0.42 0.41 0.41 0.41
0.21 0.15 0.21 0.34 0.40 0.35 0.28 0.18 0.11 0.08 0.06 0.05 0.06 0.06 0.06 0.05 0.04 0.02 0.01 0.01 0.01 0.01 0.02 0.04 0.08 0.12 0.14 0.13 0.14 0.15 0.19 0.27 0.31 0.31 0.31 0.31 0.33 0.33 0.33 0.39 0.42 0.36 0.37 0.34
0.10 0.12 0.18 0.30 0.30 0.29 0.25 0.14 0.09 0.06 0.06 0.07 0.08 0.08 0.07 0.05 0.02 0.01 0.01 0.01 0.01 0.02 0.05 0.09 0.13 0.16 0.16 0.15 0.16 0.17 0.21 0.31 0.37 0.37 0.34 0.33 0.33 0.33 0.34 0.37 0.37 0.30 0.23 0.21

GEFSCGP_prec_meanprecacc_090.txt.gz
Total_Precipitation_Accumulation
0.00 0.00 0.01 0.01 0.02 0.02 0.04 0.09 0.22 0.26 0.19 0.28 0.35 0.54 0.63 0.71 0.85 0.85 0.73 0.75 1.00 1.14 1.31 1.56 2.04 2.73 3.56 4.20 4.26 3.73 3.16 2.78 2.36 1.98 1.43 1.07 0.88 0.78 0.71 0.59 0.52 0.47 0.42 0.44
0.00 0.02 0.02 0.01 0.02 0.03 0.06 0.08 0.19 0.26 0.18 0.21 0.34 0.64 0.89 0.84 0.77 0.73 0.73 0.67 0.81 1.14 1.53 2.03 2.88 3.40 3.41 3.29 2.80 2.31 2.03 1.80 1.45 1.12 0.80 0.63 0.52 0.43 0.38 0.35 0.36 0.34 0.30 0.30
0.01 0.03 0.02 0.02 0.03 0.09 0.10 0.10 0.18 0.25 0.15 0.16 0.35 0.78 1.01 0.97 0.75 0.62 0.60 0.53 0.74 1.15 1.70 2.39 2.85 2.82 2.30 1.79 1.51 1.32 1.23 0.94 0.75 0.65 0.52 0.43 0.34 0.29 0.27 0.26 0.26 0.24 0.21 0.22
0.01 0.02 0.02 0.02 0.04 0.08 0.09 0.06 0.06 0.09 0.15 0.33 0.50 0.99 1.10 0.88 0.79 0.62 0.58 0.55 0.64 0.89 1.18 1.53 1.69 1.47 1.36 1.28 1.18 1.12 1.03 0.72 0.56 0.47 0.39 0.31 0.26 0.24 0.23 0.21 0.21 0.19 0.17 0.18
0.02 0.03 0.02 0.02 0.03 0.04 0.04 0.03 0.04 0.11 0.22 0.41 0.59 0.82 0.90 0.68 0.77 0.57 0.43 0.42 0.44 0.59 0.66 0.69 0.73 0.72 0.72 0.74 0.82 0.88 0.89 0.76 0.58 0.48 0.42 0.34 0.27 0.24 0.21 0.21 0.21 0.21 0.20 0.18
0.03 0.04 0.03 0.02 0.02 0.03 0.03 0.05 0.12 0.23 0.39 0.85 0.80 0.79 0.94 0.81 0.80 0.59 0.40 0.32 0.36 0.48 0.53 0.51 0.46 0.45 0.49 0.53 0.51 0.58 0.73 0.81 0.71 0.61 0.51 0.43 0.33 0.28 0.24 0.22 0.21 0.20 0.18 0.18
0.09 0.07 0.05 0.03 0.03 0.05 0.05 0.07 0.24 0.56 0.92 1.06 0.65 0.72 0.94 0.69 0.59 0.43 0.23 0.17 0.28 0.45 0.54 0.51 0.43 0.35 0.33 0.36 0.35 0.33 0.36 0.47 0.49 0.44 0.43 0.44 0.40 0.32 0.25 0.21 0.17 0.18 0.16 0.16
0.14 0.12 0.06 0.04 0.04 0.06 0.05 0.03 0.10 0.20 0.28 0.43 0.54 0.85 0.96 0.66 0.41 0.19 0.09 0.07 0.20 0.30 0.31 0.30 0.27 0.21 0.15 0.14 0.17 0.18 0.19 0.21 0.25 0.24 0.24 0.26 0.28 0.22 0.18 0.23 0.18 0.18 0.21 0.22
0.05 0.05 0.04 0.04 0.05 0.06 0.05 0.03 0.04 0.07 0.11 0.28 0.58 0.82 0.71 0.53 0.34 0.16 0.08 0.06 0.07 0.09 0.11 0.12 0.14 0.13 0.11 0.10 0.10 0.11 0.13 0.15 0.16 0.17 0.15 0.15 0.19 0.19 0.17 0.18 0.18 0.16 0.22 0.23
0.02 0.02 0.04 0.04 0.05 0.05 0.05 0.04 0.04 0.04 0.10 0.19 0.40 0.72 0.78 0.57 0.37 0.16 0.10 0.08 0.07 0.08 0.08 0.08 0.08 0.08 0.07 0.08 0.09 0.12 0.14 0.13 0.12 0.11 0.09 0.09 0.15 0.18 0.17 0.16 0.18 0.19 0.19 0.19
0.02 0.02 0.05 0.05 0.06 0.08 0.07 0.06 0.05 0.05 0.07 0.12 0.26 0.40 0.34 0.27 0.19 0.12 0.08 0.05 0.05 0.05 0.05 0.05 0.05 0.05 0.05 0.05 0.07 0.09 0.10 0.10 0.09 0.06 0.05 0.06 0.09 0.11 0.15 0.18 0.20 0.21 0.20 0.18
0.02 0.02 0.03 0.06 0.08 0.08 0.08 0.09 0.08 0.07 0.07 0.08 0.13 0.25 0.18 0.15 0.14 0.10 0.06 0.04 0.02 0.02 0.02 0.02 0.03 0.05 0.05 0.05 0.06 0.08 0.09 0.07 0.06 0.05 0.04 0.03 0.03 0.05 0.08 0.12 0.15 0.18 0.17 0.16
0.02 0.02 0.03 0.11 0.17 0.14 0.09 0.07 0.08 0.08 0.08 0.07 0.17 0.30 0.21 0.12 0.10 0.09 0.07 0.05 0.03 0.02 0.01 0.02 0.04 0.08 0.10 0.08 0.07 0.07 0.10 0.09 0.05 0.04 0.03 0.04 0.03 0.04 0.05 0.07 0.10 0.13 0.15 0.17
0.03 0.02 0.02 0.09 0.17 0.18 0.15 0.10 0.10 0.09 0.06 0.05 0.10 0.25 0.20 0.13 0.14 0.11 0.08 0.06 0.04 0.03 0.02 0.02 0.03 0.06 0.06 0.04 0.04 0.06 0.08 0.13 0.11 0.11 0.10 0.10 0.09 0.08 0.07 0.06 0.07 0.09 0.13 0.16
0.03 0.02 0.02 0.02 0.05 0.08 0.10 0.11 0.10 0.07 0.04 0.06 0.08 0.15 0.13 0.14 0.14 0.12 0.10 0.07 0.05 0.05 0.05 0.04 0.05 0.09 0.11 0.10 0.10 0.11 0.13 0.15 0.17 0.20 0.23 0.25 0.24 0.21 0.16 0.14 0.14 0.16 0.20 0.23
0.03 0.03 0.02 0.02 0.04 0.07 0.09 0.11 0.07 0.05 0.03 0.04 0.05 0.07 0.07 0.10 0.12 0.10 0.08 0.08 0.09 0.10 0.08 0.08 0.08 0.10 0.11 0.12 0.13 0.15 0.18 0.19 0.19 0.21 0.23 0.24 0.26 0.24 0.23 0.24 0.26 0.30 0.33 0.39
0.06 0.06 0.04 0.03 0.06 0.07 0.13 0.10 0.07 0.06 0.05 0.04 0.06 0.08 0.09 0.12 0.19 0.18 0.12 0.11 0.10 0.09 0.07 0.07 0.08 0.09 0.09 0.10 0.09 0.11 0.13 0.16 0.19 0.26 0.31 0.33 0.33 0.31 0.33 0.36 0.38 0.40 0.42 0.45
0.16 0.14 0.10 0.08 0.08 0.12 0.13 0.09 0.08 0.07 0.07 0.09 0.11 0.11 0.13 0.15 0.16 0.15 0.12 0.10 0.08 0.08 0.09 0.09 0.09 0.09 0.09 0.10 0.11 0.13 0.15 0.17 0.20 0.24 0.29 0.34 0.39 0.43 0.47 0.54 0.58 0.59 0.60 0.58
0.27 0.26 0.19 0.14 0.12 0.14 0.15 0.14 0.14 0.15 0.14 0.13 0.18 0.22 0.21 0.18 0.14 0.12 0.12 0.11 0.12 0.10 0.08 0.08 0.08 0.09 0.11 0.12 0.14 0.16 0.21 0.27 0.31 0.33 0.38 0.43 0.47 0.51 0.56 0.61 0.66 0.69 0.70 0.64
0.28 0.31 0.27 0.21 0.21 0.21 0.19 0.22 0.18 0.17 0.24 0.22 0.26 0.27 0.26 0.24 0.28 0.26 0.18 0.13 0.10 0.08 0.06 0.05 0.06 0.08 0.11 0.14 0.18 0.21 0.25 0.30 0.36 0.39 0.40 0.43 0.50 0.55 0.55 0.58 0.62 0.61 0.64 0.62
0.27 0.33 0.32 0.29 0.28 0.24 0.22 0.23 0.23 0.35 0.45 0.46 0.49 0.43 0.33 0.31 0.30 0.23 0.15 0.10 0.07 0.07 0.06 0.05 0.05 0.05 0.07 0.10 0.13 0.19 0.26 0.34 0.36 0.36 0.36 0.39 0.46 0.54 0.55 0.58 0.61 0.58 0.57 0.58
0.42 0.47 0.45 0.43 0.51 0.47 0.35 0.36 0.44 0.51 0.47 0.59 0.50 0.38 0.32 0.27 0.19 0.14 0.09 0.07 0.05 0.05 0.04 0.04 0.04 0.05 0.06 0.10 0.15 0.20 0.25 0.26 0.29 0.29 0.28 0.28 0.31 0.33 0.36 0.45 0.49 0.54 0.59 0.60
0.51 0.55 0.58 0.54 0.56 0.49 0.46 0.47 0.47 0.41 0.35 0.37 0.31 0.23 0.19 0.15 0.11 0.07 0.05 0.04 0.04 0.04 0.04 0.04 0.05 0.06 0.08 0.12 0.17 0.22 0.22 0.22 0.24 0.26 0.26 0.27 0.28 0.32 0.37 0.43 0.43 0.44 0.48 0.49
0.54 0.42 0.49 0.63 0.62 0.54 0.44 0.33 0.31 0.30 0.27 0.25 0.21 0.21 0.18 0.12 0.08 0.05 0.03 0.03 0.02 0.02 0.03 0.04 0.05 0.08 0.11 0.13 0.15 0.18 0.20 0.24 0.28 0.30 0.30 0.31 0.32 0.33 0.35 0.43 0.43 0.42 0.42 0.41
0.44 0.36 0.48 0.71 0.76 0.66 0.55 0.42 0.36 0.32 0.29 0.23 0.21 0.20 0.17 0.12 0.08 0.05 0.03 0.02 0.01 0.01 0.02 0.04 0.08 0.12 0.14 0.13 0.14 0.15 0.19 0.27 0.31 0.31 0.31 0.31 0.33 0.34 0.33 0.39 0.42 0.36 0.37 0.34
0.28 0.30 0.44 0.67 0.67 0.72 0.65 0.46 0.39 0.35 0.35 0.28 0.23 0.20 0.15 0.11 0.07 0.04 0.03 0.02 0.02 0.02 0.05 0.09 0.13 0.16 0.16 0.15 0.16 0.17 0.21 0.31 0.37 0.37 0.34 0.33 0.33 0.33 0.34 0.37 0.37 0.30 0.23 0.21

GEFSCGP_prec_meanprecacc_096.txt.gz
Total_Precipitation_Accumulation
0.00 0.00 0.01 0.01 0.02 0.02 0.04 0.09 0.22 0.26 0.19 0.28 0.35 0.55 0.64 0.71 0.86 0.86 0.74 0.77 1.03 1.19 1.41 1.66 2.15 2.88 3.74 4.41 4.51 3.93 3.35 2.96 2.52 2.11 1.55 1.16 0.96 0.85 0.76 0.63 0.54 0.48 0.44 0.45
0.00 0.02 0.02 0.01 0.02 0.03 0.06 0.08 0.19 0.26 0.18 0.21 0.35 0.64 0.90 0.85 0.78 0.74 0.75 0.69 0.83 1.18 1.60 2.10 2.98 3.54 3.60 3.51 3.04 2.55 2.24 1.98 1.60 1.23 0.90 0.73 0.61 0.50 0.43 0.39 0.38 0.36 0.31 0.31
0.01 0.03 0.02 0.02 0.03 0.09 0.10 0.10 0.18 0.25 0.15 0.16 0.35 0.78 1.02 0.98 0.76 0.63 0.61 0.55 0.76 1.16 1.73 2.43 2.93 2.93 2.44 1.98 1.72 1.57 1.46 1.11 0.93 0.80 0.64 0.53 0.43 0.34 0.30 0.29 0.28 0.25 0.22 0.23
0.01 0.02 0.02 0.02 0.04 0.08 0.09 0.06 0.06 0.09 0.15 0.33 0.51 0.99 1.10 0.88 0.79 0.62 0.58 0.56 0.66 0.90 1.20 1.57 1.75 1.57 1.45 1.42 1.34 1.34 1.24 0.90 0.74 0.63 0.50 0.38 0.31 0.27 0.24 0.22 0.22 0.20 0.18 0.18
0.02 0.03 0.02 0.02 0.03 0.04 0.04 0.03 0.04 0.11 0.22 0.41 0.59 0.82 0.90 0.68 0.77 0.58 0.43 0.42 0.44 0.59 0.67 0.72 0.76 0.79 0.82 0.87 0.97 1.05 1.08 0.94 0.74 0.62 0.52 0.41 0.32 0.27 0.23 0.23 0.22 0.22 0.20 0.18
0.03 0.04 0.03 0.02 0.02 0.03 0.03 0.05 0.12 0.23 0.39 0.85 0.80 0.79 0.95 0.81 0.81 0.59 0.40 0.32 0.37 0.49 0.54 0.53 0.49 0.50 0.57 0.63 0.64 0.74 0.91 0.97 0.84 0.72 0.60 0.50 0.39 0.33 0.26 0.23 0.22 0.20 0.18 0.18
0.09 0.07 0.05 0.03 0.03 0.05 0.05 0.07 0.24 0.56 0.92 1.06 0.65 0.72 0.94 0.69 0.60 0.43 0.23 0.17 0.29 0.46 0.55 0.52 0.44 0.37 0.36 0.41 0.43 0.42 0.48 0.58 0.61 0.55 0.53 0.51 0.47 0.37 0.27 0.22 0.18 0.18 0.16 0.16
0.14 0.12 0.06 0.04 0.04 0.06 0.05 0.04 0.10 0.20 0.28 0.43 0.54 0.85 0.96 0.66 0.41 0.19 0.09 0.08 0.20 0.33 0.33 0.31 0.29 0.22 0.16 0.17 0.22 0.24 0.27 0.30 0.34 0.34 0.33 0.32 0.34 0.25 0.20 0.24 0.19 0.18 0.21 0.22
0.05 0.05 0.04 0.04 0.05 0.06 0.05 0.03 0.04 0.07 0.11 0.28 0.58 0.82 0.71 0.53 0.34 0.17 0.09 0.06 0.07 0.11 0.12 0.13 0.15 0.14 0.11 0.11 0.14 0.17 0.22 0.23 0.25 0.27 0.26 0.22 0.24 0.22 0.19 0.20 0.19 0.16 0.22 0.24
0.02 0.02 0.04 0.04 0.05 0.06 0.05 0.04 0.04 0.05 0.10 0.20 0.40 0.72 0.78 0.57 0.37 0.17 0.10 0.08 0.07 0.08 0.08 0.08 0.08 0.08 0.08 0.08 0.11 0.14 0.18 0.19 0.22 0.23 0.21 0.16 0.20 0.21 0.20 0.18 0.19 0.20 0.19 0.19
0.02 0.02 0.05 0.05 0.06 0.08 0.07 0.06 0.06 0.05 0.07 0.12 0.26 0.40 0.35 0.27 0.19 0.12 0.08 0.05 0.05 0.05 0.05 0.05 0.05 0.05 0.05 0.06 0.08 0.10 0.13 0.14 0.16 0.16 0.16 0.14 0.14 0.16 0.18 0.20 0.21 0.22 0.20 0.19
0.02 0.02 0.03 0.06 0.08 0.08 0.08 0.09 0.09 0.08 0.07 0.08 0.13 0.25 0.18 0.15 0.15 0.10 0.06 0.04 0.03 0.02 0.02 0.02 0.04 0.06 0.06 0.06 0.06 0.09 0.11 0.11 0.11 0.12 0.12 0.11 0.10 0.09 0.12 0.15 0.16 0.18 0.18 0.17
0.03 0.02 0.03 0.11 0.17 0.15 0.10 0.08 0.08 0.09 0.08 0.07 0.17 0.30 0.21 0.12 0.11 0.09 0.07 0.06 0.03 0.03 0.02 0.02 0.04 0.08 0.11 0.08 0.07 0.08 0.12 0.12 0.10 0.10 0.09 0.09 0.08 0.08 0.09 0.10 0.12 0.14 0.16 0.18
0.03 0.02 0.03 0.09 0.18 0.19 0.15 0.10 0.10 0.09 0.07 0.05 0.11 0.25 0.20 0.14 0.14 0.11 0.08 0.06 0.04 0.04 0.03 0.04 0.05 0.08 0.08 0.07 0.07 0.10 0.14 0.20 0.19 0.16 0.15 0.15 0.13 0.12 0.10 0.08 0.09 0.11 0.14 0.17
0.03 0.02 0.02 0.03 0.06 0.09 0.11 0.12 0.10 0.07 0.04 0.06 0.08 0.15 0.13 0.15 0.14 0.13 0.10 0.07 0.06 0.06 0.06 0.06 0.07 0.11 0.14 0.14 0.16 0.19 0.23 0.26 0.27 0.25 0.28 0.30 0.30 0.25 0.20 0.18 0.17 0.19 0.22 0.26
0.03 0.03 0.03 0.03 0.05 0.08 0.10 0.12 0.08 0.06 0.04 0.05 0.05 0.08 0.08 0.11 0.13 0.11 0.08 0.08 0.09 0.10 0.09 0.09 0.10 0.13 0.14 0.16 0.18 0.21 0.26 0.28 0.26 0.28 0.29 0.31 0.35 0.32 0.30 0.30 0.32 0.36 0.39 0.46
0.06 0.06 0.04 0.04 0.06 0.08 0.14 0.11 0.08 0.07 0.06 0.06 0.07 0.09 0.10 0.13 0.20 0.18 0.12 0.11 0.11 0.09 0.08 0.09 0.11 0.12 0.13 0.14 0.15 0.17 0.21 0.24 0.28 0.35 0.41 0.44 0.45 0.43 0.43 0.46 0.46 0.47 0.49 0.53
0.16 0.14 0.11 0.08 0.09 0.13 0.14 0.11 0.10 0.09 0.08 0.10 0.11 0.12 0.14 0.16 0.17 0.17 0.13 0.11 0.11 0.11 0.12 0.13 0.14 0.14 0.14 0.15 0.16 0.20 0.25 0.27 0.32 0.37 0.43 0.47 0.53 0.56 0.58 0.65 0.67 0.69 0.69 0.67
0.27 0.26 0.19 0.14 0.13 0.15 0.16 0.16 0.15 0.16 0.15 0.14 0.20 0.23 0.22 0.19 0.16 0.15 0.16 0.16 0.16 0.14 0.11 0.11 0.13 0.15 0.16 0.17 0.20 0.23 0.29 0.37 0.42 0.45 0.50 0.54 0.57 0.62 0.67 0.69 0.73 0.77 0.79 0.76
0.28 0.31 0.27 0.21 0.22 0.22 0.21 0.24 0.19 0.19 0.26 0.25 0.29 0.29 0.29 0.28 0.32 0.32 0.24 0.20 0.17 0.13 0.10 0.08 0.09 0.12 0.16 0.20 0.24 0.29 0.34 0.41 0.48 0.52 0.51 0.50 0.55 0.61 0.62 0.64 0.68 0.68 0.70 0.68
0.27 0.33 0.32 0.29 0.28 0.24 0.23 0.24 0.25 0.37 0.47 0.49 0.54 0.47 0.37 0.36 0.36 0.30 0.22 0.17 0.14 0.12 0.10 0.08 0.07 0.08 0.10 0.14 0.18 0.25 0.34 0.43 0.44 0.42 0.41 0.42 0.49 0.58 0.59 0.64 0.66 0.62 0.60 0.61
0.43 0.47 0.46 0.44 0.52 0.48 0.36 0.38 0.47 0.53 0.49 0.62 0.55 0.43 0.39 0.34 0.26 0.21 0.18 0.15 0.11 0.09 0.08 0.08 0.07 0.07 0.09 0.13 0.17 0.24 0.29 0.30 0.32 0.31 0.30 0.30 0.33 0.35 0.37 0.47 0.52 0.56 0.61 0.62
0.54 0.57 0.59 0.55 0.57 0.50 0.47 0.50 0.50 0.42 0.37 0.41 0.36 0.29 0.27 0.25 0.20 0.15 0.13 0.12 0.09 0.08 0.09 0.09 0.09 0.10 0.11 0.15 0.21 0.26 0.24 0.24 0.26 0.27 0.27 0.28 0.29 0.33 0.38 0.43 0.44 0.45 0.49 0.50
0.59 0.46 0.53 0.67 0.65 0.57 0.47 0.35 0.34 0.32 0.30 0.30 0.29 0.30 0.29 0.24 0.18 0.14 0.11 0.08 0.06 0.06 0.07 0.09 0.09 0.11 0.14 0.16 0.19 0.20 0.22 0.25 0.30 0.31 0.31 0.31 0.32 0.33 0.36 0.43 0.43 0.42 0.42 0.42
0.53 0.45 0.55 0.80 0.85 0.73 0.60 0.47 0.41 0.36 0.35 0.32 0.32 0.31 0.31 0.27 0.20 0.14 0.11 0.06 0.05 0.04 0.05 0.07 0.11 0.15 0.15 0.14 0.15 0.16 0.20 0.27 0.32 0.31 0.31 0.31 0.33 0.34 0.33 0.39 0.42 0.36 0.37 0.34
0.40 0.43 0.59 0.82 0.79 0.81 0.73 0.57 0.49 0.43 0.44 0.39 0.35 0.35 0.31 0.25 0.19 0.13 0.10 0.07 0.05 0.05 0.07 0.10 0.14 0.16 0.16 0.15 0.16 0.17 0.21 0.31 0.37 0.37 0.34 0.33 0.33 0.33 0.34 0.37 0.37 0.30 0.23 0.21

GEFSCGP_prec_meanprecacc_102.txt.gz
Total_Precipitation_Accumulation
0.00 0.00 0.01 0.01 0.02 0.02 0.04 0.09 0.22 0.26 0.19 0.28 0.35 0.55 0.64 0.72 0.86 0.86 0.74 0.77 1.04 1.22 1.44 1.70 2.21 2.95 3.83 4.52 4.61 4.06 3.48 3.08 2.64 2.22 1.67 1.27 1.04 0.93 0.84 0.70 0.60 0.54 0.49 0.49
0.00 0.02 0.02 0.01 0.02 0.03 0.06 0.08 0.19 0.26 0.18 0.21 0.35 0.65 0.90 0.85 0.78 0.74 0.76 0.69 0.84 1.20 1.61 2.12 3.03 3.59 3.66 3.59 3.13 2.66 2.36 2.09 1.72 1.34 1.03 0.85 0.71 0.59 0.51 0.46 0.44 0.40 0.35 0.34
0.01 0.03 0.02 0.02 0.03 0.09 0.10 0.10 0.18 0.25 0.15 0.16 0.35 0.78 1.02 0.98 0.76 0.63 0.61 0.55 0.76 1.17 1.74 2.45 2.96 2.97 2.48 2.04 1.80 1.66 1.57 1.23 1.04 0.90 0.76 0.66 0.53 0.41 0.36 0.35 0.34 0.29 0.24 0.24
0.01 0.02 0.02 0.02 0.04 0.08 0.09 0.06 0.06 0.09 0.15 0.33 0.51 0.99 1.10 0.88 0.79 0.62 0.58 0.56 0.66 0.90 1.21 1.58 1.77 1.60 1.50 1.46 1.42 1.45 1.36 1.02 0.85 0.72 0.60 0.48 0.39 0.33 0.31 0.28 0.27 0.24 0.20 0.19
0.02 0.03 0.02 0.02 0.03 0.04 0.04 0.03 0.04 0.11 0.22 0.41 0.59 0.82 0.90 0.68 0.77 0.58 0.43 0.42 0.44 0.59 0.68 0.73 0.78 0.83 0.88 0.93 1.05 1.17 1.20 1.04 0.82 0.70 0.61 0.52 0.41 0.35 0.31 0.29 0.27 0.26 0.23 0.19
0.03 0.04 0.03 0.02 0.02 0.03 0.03 0.05 0.12 0.23 0.39 0.85 0.80 0.79 0.95 0.81 0.81 0.59 0.40 0.32 0.37 0.49 0.55 0.54 0.50 0.54 0.63 0.70 0.76 0.87 1.02 1.06 0.92 0.79 0.68 0.60 0.49 0.42 0.34 0.30 0.27 0.24 0.20 0.19
0.09 0.07 0.05 0.03 0.03 0.05 0.05 0.07 0.24 0.56 0.92 1.06 0.65 0.72 0.94 0.69 0.60 0.43 0.23 0.17 0.29 0.46 0.55 0.53 0.45 0.39 0.39 0.46 0.52 0.52 0.58 0.67 0.69 0.63 0.60 0.59 0.55 0.45 0.35 0.28 0.22 0.21 0.18 0.17
0.14 0.12 0.06 0.04 0.04 0.06 0.05 0.04 0.10 0.20 0.28 0.43 0.54 0.85 0.96 0.66 0.41 0.19 0.09 0.08 0.21 0.33 0.34 0.32 0.29 0.24 0.18 0.20 0.28 0.31 0.34 0.38 0.41 0.42 0.41 0.40 0.42 0.32 0.26 0.29 0.22 0.20 0.22 0.23
0.05 0.05 0.04 0.04 0.05 0.06 0.05 0.03 0.04 0.07 0.11 0.28 0.58 0.82 0.71 0.53 0.34 0.17 0.09 0.06 0.07 0.11 0.12 0.14 0.16 0.15 0.13 0.13 0.17 0.22 0.29 0.32 0.32 0.35 0.34 0.29 0.31 0.29 0.26 0.24 0.21 0.18 0.24 0.25
0.02 0.02 0.04 0.04 0.05 0.06 0.05 0.04 0.04 0.05 0.10 0.20 0.40 0.72 0.78 0.57 0.37 0.17 0.10 0.08 0.07 0.08 0.08 0.09 0.09 0.09 0.09 0.09 0.13 0.19 0.27 0.31 0.31 0.30 0.29 0.24 0.28 0.29 0.27 0.22 0.22 0.22 0.21 0.21
0.02 0.02 0.05 0.05 0.06 0.08 0.07 0.06 0.06 0.05 0.07 0.12 0.26 0.41 0.35 0.27 0.19 0.12 0.08 0.05 0.05 0.05 0.05 0.05 0.05 0.06 0.06 0.07 0.09 0.12 0.18 0.22 0.24 0.25 0.25 0.22 0.22 0.23 0.24 0.24 0.24 0.24 0.22 0.20
0.02 0.02 0.03 0.06 0.08 0.08 0.08 0.09 0.09 0.08 0.07 0.08 0.13 0.25 0.18 0.15 0.15 0.10 0.06 0.04 0.03 0.02 0.02 0.03 0.04 0.06 0.06 0.06 0.07 0.10 0.13 0.14 0.17 0.19 0.18 0.17 0.18 0.17 0.18 0.19 0.20 0.21 0.20 0.18
0.03 0.02 0.03 0.11 0.17 0.15 0.10 0.08 0.08 0.09 0.08 0.07 0.17 0.30 0.21 0.12 0.11 0.09 0.07 0.06 0.03 0.03 0.02 0.03 0.04 0.09 0.11 0.09 0.08 0.09 0.14 0.14 0.16 0.15 0.13 0.13 0.16 0.16 0.15 0.14 0.15 0.16 0.19 0.20
0.03 0.02 0.03 0.09 0.18 0.19 0.15 0.10 0.10 0.09 0.07 0.06 0.11 0.25 0.20 0.14 0.14 0.11 0.08 0.06 0.04 0.04 0.04 0.04 0.05 0.08 0.08 0.07 0.08 0.11 0.16 0.21 0.23 0.21 0.19 0.20 0.22 0.20 0.17 0.13 0.13 0.14 0.18 0.20
0.03 0.02 0.02 0.03 0.06 0.09 0.11 0.12 0.10 0.07 0.04 0.06 0.08 0.15 0.13 0.15 0.14 0.13 0.10 0.07 0.06 0.06 0.06 0.06 0.08 0.12 0.15 0.15 0.17 0.21 0.25 0.28 0.30 0.30 0.32 0.35 0.36 0.33 0.26 0.22 0.22 0.24 0.27 0.30
0.03 0.03 0.03 0.03 0.05 0.08 0.10 0.12 0.08 0.06 0.04 0.05 0.06 0.08 0.08 0.11 0.13 0.11 0.08 0.08 0.10 0.10 0.09 0.10 0.11 0.13 0.15 0.17 0.19 0.23 0.28 0.30 0.29 0.31 0.33 0.35 0.39 0.38 0.36 0.36 0.38 0.41 0.45 0.52
0.06 0.06 0.04 0.04 0.06 0.08 0.14 0.11 0.08 0.07 0.06 0.06 0.07 0.09 0.10 0.13 0.20 0.19 0.13 0.12 0.11 0.10 0.09 0.09 0.11 0.13 0.14 0.15 0.16 0.19 0.23 0.26 0.30 0.39 0.45 0.48 0.49 0.48 0.50 0.52 0.52 0.52 0.53 0.57
0.16 0.14 0.11 0.08 0.09 0.13 0.14 0.11 0.10 0.09 0.08 0.10 0.12 0.12 0.14 0.17 0.18 0.17 0.14 0.11 0.11 0.11 0.12 0.13 0.14 0.14 0.15 0.16 0.17 0.22 0.27 0.30 0.35 0.40 0.47 0.51 0.57 0.61 0.63 0.69 0.71 0.72 0.72 0.70
0.27 0.27 0.20 0.15 0.13 0.15 0.17 0.16 0.15 0.17 0.15 0.14 0.20 0.23 0.22 0.20 0.16 0.16 0.16 0.16 0.16 0.15 0.12 0.11 0.14 0.17 0.17 0.18 0.22 0.26 0.31 0.40 0.45 0.48 0.53 0.58 0.60 0.65 0.70 0.73 0.76 0.80 0.81 0.78
0.29 0.32 0.29 0.22 0.23 0.23 0.21 0.24 0.20 0.19 0.27 0.25 0.29 0.30 0.29 0.28 0.33 0.34 0.25 0.20 0.17 0.14 0.11 0.09 0.10 0.13 0.18 0.22 0.26 0.32 0.37 0.45 0.52 0.56 0.55 0.54 0.59 0.64 0.65 0.67 0.70 0.69 0.71 0.70
0.29 0.35 0.34 0.31 0.29 0.25 0.24 0.25 0.26 0.39 0.48 0.50 0.54 0.48 0.37 0.37 0.38 0.32 0.24 0.18 0.15 0.13 0.12 0.10 0.09 0.10 0.12 0.16 0.21 0.28 0.37 0.47 0.49 0.47 0.44 0.45 0.52 0.61 0.62 0.66 0.67 0.63 0.62 0.63
0.45 0.49 0.48 0.46 0.53 0.49 0.36 0.39 0.49 0.55 0.51 0.63 0.55 0.44 0.40 0.35 0.27 0.23 0.21 0.18 0.13 0.12 0.11 0.09 0.09 0.09 0.11 0.15 0.19 0.26 0.32 0.35 0.36 0.35 0.33 0.32 0.35 0.37 0.39 0.49 0.53 0.57 0.62 0.63
0.57 0.61 0.63 0.57 0.59 0.52 0.48 0.51 0.51 0.44 0.39 0.42 0.37 0.30 0.28 0.26 0.22 0.18 0.17 0.15 0.12 0.10 0.11 0.12 0.11 0.12 0.13 0.17 0.23 0.29 0.27 0.27 0.28 0.29 0.29 0.29 0.30 0.34 0.39 0.44 0.44 0.46 0.50 0.51
0.63 0.50 0.58 0.71 0.68 0.59 0.49 0.38 0.36 0.35 0.33 0.32 0.32 0.33 0.33 0.28 0.22 0.17 0.15 0.12 0.09 0.09 0.11 0.13 0.14 0.17 0.18 0.20 0.22 0.23 0.23 0.27 0.31 0.32 0.32 0.32 0.33 0.34 0.36 0.43 0.43 0.42 0.42 0.42
0.61 0.53 0.63 0.88 0.92 0.78 0.64 0.51 0.44 0.40 0.38 0.36 0.37 0.37 0.37 0.33 0.26 0.20 0.16 0.12 0.09 0.08 0.09 0.11 0.16 0.21 0.22 0.20 0.18 0.18 0.21 0.29 0.33 0.32 0.31 0.31 0.33 0.34 0.34 0.40 0.42 0.36 0.37 0.35
0.53 0.58 0.73 0.93 0.89 0.88 0.80 0.62 0.55 0.51 0.52 0.46 0.45 0.43 0.39 0.32 0.26 0.21 0.19 0.15 0.11 0.10 0.11 0.15 0.19 0.22 0.22 0.19 0.18 0.18 0.22 0.31 0.38 0.37 0.34 0.33 0.33 0.33 0.34 0.37 0.37 0.30 0.23 0.21